Location: Stokes Fall Starparty
(41.2298°N, 74.7506°W)
Time: 08:09:27
(UTC-04:00)

Daily predictions for brighter satellites

Satellite Brightness Start Highest point End
(mag) Time Altitude Azimuth Time Altitude Azimuth Time Altitude Azimuth
Meteor 1-27 Rocket 4.2 20:37:32 10° N 20:42:48 42° ENE 20:48:00 10° SE
CZ-3C R/B 4.3 20:08:06 10° SW 20:46:40 26° SSW 20:55:24 10° SE
ATLAS 5 CENTAUR R/B 3.4 20:44:33 10° NW 20:50:21 47° WSW 20:56:28 10° S
Cosmos 2154 Rocket 4.3 20:45:57 10° SSE 20:51:51 47° E 20:57:45 10° NNE
H-2A R/B 3.3 20:49:20 10° S 20:53:00 60° W 20:56:42 10° NNW
Cosmos 1242 Rocket 4.4 20:51:53 10° NNE 20:54:25 17° ENE 20:56:57 10° ESE
H-2A R/B 2.8 20:53:13 10° SE 20:57:06 34° ENE 21:00:55 10° N
Cosmos 2184 Rocket 4.2 20:51:48 10° S 20:57:57 79° W 21:04:11 10° N
Cosmos 1782 2.9 20:55:38 10° N 20:59:41 87° W 21:03:44 10° S
YAOGAN 11 4.2 20:55:15 10° SSE 20:59:47 78° ENE 21:04:22 10° N
Cosmos 1174 3.1 20:58:15 10° NNW 21:01:29 88° WSW 21:04:26 10° SSE
Cosmos 676 Rocket 4.0 20:56:41 10° NNW 21:01:55 75° ENE 21:07:08 10° SSE
Cosmos 1408 3.2 20:59:31 10° SSE 21:02:53 37° E 21:06:17 10° NNE
Cosmos 1954 Rocket 4.1 20:59:58 10° NNW 21:05:09 62° ENE 21:10:20 10° SSE
Okean 3 4.0 21:05:23 10° N 21:09:28 42° ENE 21:13:22 11° SSE
Atlas Centaur 2 3.3 21:09:19 10° SSW 21:10:29 11° SSW 21:11:37 10° S
COS B Rocket 3.5 21:07:17 10° NNE 21:11:06 45° E 21:14:29 10° SSE
CZ-4 DEB 3.5 21:11:09 10° S 21:14:14 53° W 21:17:22 10° NNW
Cosmos 1833 Rocket 4.0 21:10:52 10° N 21:15:26 25° NE 21:19:34 12° ESE
Cosmos 1844 Rocket 3.6 21:13:48 10° SW 21:19:20 54° WNW 21:24:52 10° NNE
Cosmos 1825 2.1 21:16:01 10° S 21:19:47 66° E 21:23:35 10° NNE
Cosmos 1939 Rocket 2.7 21:16:11 10° SSE 21:20:03 78° ENE 21:24:01 10° N
Cosmos 2278 Rocket 2.2 21:15:45 10° SSW 21:21:24 79° ESE 21:27:06 10° NNE
GPS 2-05 Rocket1 3.8 21:18:32 10° WSW 21:21:56 34° S 21:24:06 18° ESE
Cosmos 1844 4.3 21:21:54 10° SW 21:27:37 63° WNW 21:33:24 10° NNE
ALOS 4.4 21:24:00 10° SSW 21:27:52 25° W 21:31:45 10° NW
Okean 2 Rocket 3.1 21:28:15 10° S 21:32:35 59° E 21:36:56 10° NNE
Envisat 3.0 21:32:04 10° SSE 21:37:09 83° WSW 21:42:15 10° NNW
SEDSat Delta rocket 4.4 21:35:30 10° SW 21:38:31 18° S 21:39:01 18° SSE
PSLV R/B 3.4 21:38:39 28° SE 21:39:50 48° ENE 21:42:42 10° N
Cosmos 1782 Rocket 3.6 21:35:56 10° S 21:40:24 89° E 21:44:55 10° N
Cosmos 2082 Rocket 2.7 21:35:54 10° NNW 21:41:24 47° ENE 21:44:57 21° SE
Cosmos 614 Rocket 4.1 21:36:49 10° NNW 21:41:51 57° ENE 21:45:00 22° SE
CZ-4 SHROUD 3.4 21:41:47 29° SE 21:43:02 51° ENE 21:46:03 10° N
Nadezhda 3 Rocket 4.3 21:38:03 10° NNW 21:44:23 70° W 21:50:41 10° S
Intercosmos 25 3.0 21:43:01 19° S 21:45:18 55° E 21:48:24 10° NNE
OAO 3 Rocket 4.0 21:41:41 10° SW 21:46:06 33° SSE 21:48:02 24° SE
Cosmos 2218 Rocket 4.3 21:41:56 14° SSE 21:47:18 50° E 21:53:27 10° NNE
ERS-1 Rocket 4.0 21:44:19 10° S 21:49:06 43° W 21:53:53 10° NNW
Cosmos 1420 Rocket 4.0 21:44:34 10° SSW 21:49:50 86° WNW 21:55:05 10° NNE
APEX 3.5 21:46:31 10° SSW 21:50:26 88° ESE 21:55:38 10° NNE
Cosmos 1812 4.3 21:48:40 10° NNE 21:51:30 19° ENE 21:52:04 19° E
COSMOS 2487 3.6 21:48:40 10° NNW 21:52:05 40° WSW 21:54:41 15° SSW
DNEPR-1 R/B 3.8 21:47:36 10° NW 21:52:56 78° WSW 21:55:32 25° SSE
Meteor 1-14 Rocket 4.2 21:48:55 12° S 21:54:00 62° E 21:59:31 10° NNE
Cosmos 1975 Rocket 3.2 21:50:52 10° NNW 21:55:11 69° W 21:58:29 17° S
Cosmos 1140 Rocket 3.7 21:51:18 10° NNW 21:56:26 69° WSW 22:00:06 19° S
USA 234 4.4 21:52:51 10° ENE 21:56:42 20° ESE 21:56:42 20° ESE
Cosmos 1959 Rocket 4.5 21:53:09 15° S 21:58:06 61° E 22:04:06 10° NNE
Cosmos 2297 3.6 21:53:12 10° SSW 21:58:53 81° ESE 22:04:38 10° NNE
Cosmos 1727 Rocket 4.3 21:54:57 10° N 22:00:54 47° ENE 22:04:02 26° SE
Terra 3.2 22:01:13 21° E 22:02:44 25° ENE 22:06:33 10° NNE
NOAA 11 4.3 22:01:15 26° SE 22:04:15 62° ENE 22:09:42 10° N
AVUM R/B 4.2 22:01:14 10° N 22:04:32 37° ENE 22:05:10 34° E
CZ-4B R/B 3.4 22:01:39 10° NNE 22:06:32 61° ESE 22:09:18 25° S
ISS -1.0 22:04:51 10° W 22:07:39 26° NNW 22:10:28 10° NE
Cosmos 1536 Rocket 3.9 22:03:45 10° N 22:08:07 50° E 22:09:31 36° SE
MetOp-B 4.2 22:04:33 20° S 22:08:17 75° WSW 22:13:40 10° NNW
H-2A R/B 2.8 22:11:12 29° ESE 22:13:13 39° ENE 22:18:06 10° N
NOSS 8 (F) 4.3 22:11:48 23° SSW 22:13:48 71° ESE 22:17:27 10° NE
BREEZE-M DEB (TANK) 4.2 22:13:32 10° NW 22:15:06 17° N 22:17:14 10° NE
SPOT 5 3.8 22:14:01 16° S 22:18:06 50° W 22:23:20 10° NNW
Lacrosse 5 rocket 3.6 22:21:56 11° ENE 22:21:56 11° ENE 22:22:07 10° ENE
SL-8 Rocket 4.1 22:14:12 10° SSW 22:20:28 75° W 22:26:43 10° N
IGS 5A 4.4 22:25:17 32° E 22:25:41 33° ENE 22:29:26 10° N
Abrixas 4.1 22:23:28 10° WSW 22:24:56 26° WSW 22:24:56 26° WSW
USA 245 3.5 22:25:48 43° SSW 22:26:44 60° W 22:30:56 10° NNW
Cosmos 2369 Rocket 3.9 22:29:38 17° E 22:29:38 17° E 22:32:05 10° ENE
SPOT 1/Viking Rocket 3.7 22:26:12 30° S 22:28:48 70° WSW 22:34:02 10° NNW
Cosmos 1242 Rocket 4.4 22:26:20 10° NNW 22:29:30 27° W 22:31:23 18° SW
Gbstr 26 Del rocket 3.9 22:25:01 10° NW 22:29:58 46° NNE 22:31:42 30° ENE
ARGOS 3.2 22:27:48 33° S 22:30:19 78° WSW 22:35:42 10° NNW
Lacrosse 5 2.4 22:31:52 39° ESE 22:31:52 39° ESE 22:35:52 10° ENE
H-2A R/B 4.3 22:30:01 10° SW 22:33:11 20° W 22:36:19 10° NW
YAOGAN 6 4.0 22:33:23 25° SW 22:34:34 31° W 22:37:45 10° NNW
CZ-4C R/B 3.2 22:38:45 68° ESE 22:39:04 73° ENE 22:43:13 10° N
Cosmos 2151 Rocket 4.1 22:36:41 26° SSW 22:39:06 59° W 22:43:36 10° N
USA 229 DEB 3.9 22:40:16 10° NW 22:47:20 68° WSW 22:50:15 38° S
USA 229 3.9 22:40:22 10° NW 22:47:26 69° WSW 22:50:21 38° S
Cosmos 1400 Rocket 4.5 22:49:31 24° ENE 22:49:31 24° ENE 22:51:47 10° NNE
Cosmos 1300 Rocket 3.4 22:49:12 71° SE 22:49:27 74° E 22:53:55 10° NNE
ASTEX 1 3.6 22:46:29 10° NNE 22:51:20 51° E 22:51:33 51° ESE
Meteor 1-20 Rocket 4.2 22:50:15 36° SSW 22:52:38 82° W 22:58:10 10° N
Timation 1 Rocket 4.4 22:48:54 13° SSW 22:54:15 76° WNW 23:00:18 10° NNE
Okean 1 Rocket 2.9 22:56:17 75° ESE 22:56:20 75° E 23:00:48 10° NNE
Cosmos 1833 Rocket 3.2 22:54:14 10° NW 22:59:38 50° WSW 23:01:16 39° SSW
NOSS 3-1 (A) 4.3 22:58:14 10° NNW 23:05:40 58° NE 23:09:02 36° ESE
Cosmos 1331 Rocket 4.3 23:05:38 33° SW 23:07:51 64° WNW 23:12:59 10° NNE
Cosmos 1503 Rocket 4.5 23:05:46 10° N 23:10:49 45° ENE 23:11:14 44° E
Okean 1-7 Rocket 3.6 23:08:46 10° N 23:13:10 80° WNW 23:13:10 80° WNW
Cosmos 1535 Rocket 4.5 23:12:04 56° SSE 23:13:17 68° E 23:19:39 10° NNE
Okean 1 4.0 23:10:47 10° NNW 23:14:37 49° W 23:14:37 49° W
DMSP B5D2-2 4.2 23:14:13 10° N 23:19:25 71° WNW 23:20:37 52° SW
Cosmos 2082 Rocket 3.8 23:20:40 10° NW 23:25:08 24° WSW 23:26:48 21° SW
Meteor 2-14 Rocket 4.4 23:25:57 60° ESE 23:26:25 62° E 23:32:28 10° NNE
ATLAS 2AS CENTAUR R/B 4.1 23:19:02 10° NNW 23:26:27 36° NE 23:30:49 21° E
Cosmos 1812 4.4 23:24:06 10° NNW 23:27:15 27° W 23:27:15 27° W
Meteor 2-15 4.4 23:23:01 10° N 23:29:04 62° E 23:29:39 59° ESE
NOSS 3-1 (C) 4.0 23:27:12 10° NW 23:34:50 85° WSW 23:37:00 54° SSE
Genesis I 4.3 23:37:08 44° NNW 23:37:08 44° NNW 23:40:23 10° NNE
Meteor 2-4 Rocket 3.6 23:31:39 10° N 23:37:08 72° E 23:37:12 72° E
Terra 2.9 23:40:06 35° WSW 23:40:16 35° W 23:44:39 10° NNW
USA 234 3.1 23:34:34 10° NE 23:41:09 84° SE 23:43:56 38° SW
BREEZE-M TANK 3.0 23:35:48 10° WNW 23:42:07 62° NW 23:42:07 62° NW
ISS -0.1 23:43:13 10° NW 23:44:56 13° N 23:46:39 10° NNE
Cosmos 1354 Rocket 4.0 23:39:58 10° NNW 23:45:03 82° NW 23:45:03 82° NW
H-2A R/B 3.6 23:51:51 26° WSW 23:52:40 27° W 23:57:08 10° NW
Cosmos 1315 Rocket 4.3 23:55:13 33° N 23:55:13 33° N 23:57:30 10° N
